Regional Weather Roundup
Issued by NWS

Home | Current Version | Previous Version | Graphics & Text | Print | Product List | Glossary On
Versions: 1 2 3 4 5 6 7 8 9 10 11 12 13 14 15 16 17 18 19 20 21 22 23 24 25 26 27 28 29 30 31 32 33 34 35 36 37 38 39 40 41 42 43 44 45 46 47 48 49 50
000
ASUS43 KLOT 211806
RWRIL

ILLINOIS REGIONAL WEATHER ROUNDUP
NATIONAL WEATHER SERVICE CHICAGO/ROMEOVILLE IL
1200 PM CST SUN DEC 21 2014

NOTE: "FAIR" INDICATES FEW OR NO CLOUDS BELOW 12,000 FEET WITH NO
SIGNIFICANT WEATHER AND/OR OBSTRUCTIONS TO VISIBILITY.

* THESE STATIONS ARE NOT UNDER NWS QUALITY CONTROL. THEY ALSO MAY NOT
  REPORT WEATHER SUCH AS PRECIPITATION OR FOG.

ILZ001-002-007-009-015-016-024-211900-
NORTHWEST ILLINOIS

CITY           SKY/WX    TMP DP  RH WIND       PRES   REMARKS
MOLINE         CLOUDY    39  34  82 SE12      30.04F WCI  32
6HR MIN TEMP:  35; 6HR MAX TEMP:  39;

STERLING*      CLOUDY    37  30  75 S7        30.08F WCI  32
SAVANNA*       CLOUDY    38  33  82 S10       30.05F WCI  31
$$

ILZ003-004-008-010-011-017-018-211900-
NORTH CENTRAL ILLINOIS

CITY           SKY/WX    TMP DP  RH WIND       PRES   REMARKS
ROCKFORD       CLOUDY    36  31  82 S15       30.11F HAZE    WCI  27
6HR MIN TEMP:  32; 6HR MAX TEMP:  36;

FREEPORT*      CLOUDY    35  32  88 S14       30.09F WCI  26
ROCHELLE*      CLOUDY    35  32  90 S12       30.11F FOG     WCI  26
DE KALB*       CLOUDY    33  31  90 S14       30.12F FOG     WCI  24
PERU*          CLOUDY    38  33  80 S13G21    30.12F WCI  30
$$

ILZ005-006-012>014-019>023-211900-
NORTHEAST ILLINOIS

CITY           SKY/WX    TMP DP  RH WIND       PRES   REMARKS
CHICAGO-OHARE  CLOUDY    35  28  75 S13       30.14F WCI  26
6HR MIN TEMP:  32; 6HR MAX TEMP:  35;

CHICAGO-MIDWAY CLOUDY    36  28  73 S10       30.16F WCI  28
6HR MIN TEMP:  34; 6HR MAX TEMP:  36;

AURORA         CLOUDY    36  29  75 S15       30.13F HAZE    WCI  27
6HR MIN TEMP:  33; 6HR MAX TEMP:  36;

LANSING*       CLOUDY    34  28  79 S12       30.18F WCI  25
JOLIET*        CLOUDY    35  29  79 S10       30.16F WCI  27
WAUKEGAN       CLOUDY    35  28  75 S15       30.13F WCI  25
6HR MIN TEMP:  32; 6HR MAX TEMP:  35;

DUPAGE AIRPORT CLOUDY    35  29  78 S13       30.13F WCI  26
6HR MIN TEMP:  32; 6HR MAX TEMP:  35;

KANKAKEE*      CLOUDY    35  29  79 S9        30.19F WCI  28
WHEELING       CLOUDY    35  28  75 S9        30.16F WCI  28
6HR MIN TEMP:  33; 6HR MAX TEMP:  35;

MORRIS*        CLOUDY    36  32  85 S13       30.15F WCI  27
ROMEOVILLE*    CLOUDY    34  29  83 S17       30.15F WCI  23
NORTHERLY ISL    N/A     35  27  73 S12         N/A  WCI  27
$$

LMZ740>746-211900-
SOUTHERN LAKE MICHIGAN

STATION/POSITION SKY/WX   TEMP    WIND        PRES    VSBY  WAVE
                          AIR SEA DIR/SP/G                  HT/PER
                          (F)     (DEG/KT/KT) (MB)    (MI)  (FT/S)
WAUKEGAN HARBOR            35     190/ 14/ 16   N/A
HARRISON CRIB              33     180/ 17/ 19   N/A
BURNHAM HARBOR             35     200/  9/ 14   N/A
CALUMET HARBOR             34     170/  8/ 16 1020.4F
$$

ILZ025>027-034>036-040-047-049-050-058-095>099-211900-
WEST-CENTRAL ILLINOIS

CITY           SKY/WX    TMP DP  RH WIND       PRES   REMARKS
QUINCY         CLOUDY    42  34  73 S15G21    30.05F
GALESBURG*     CLOUDY    39  34  83 S14G20    30.06F WCI  31
MACOMB*        CLOUDY    40  35  84 S17       30.10F
JACKSONVILLE*  CLOUDY    41  34  76 SE12G18   30.11F
PITTSFIELD*    CLOUDY    43  37  80 SE12      30.09F
$$

ILZ028>032-037-038-041>044-048-051>054-059>061-211900-
CENTRAL ILLINOIS

CITY           SKY/WX    TMP DP  RH WIND       PRES   REMARKS
PONTIAC        CLOUDY    38  32  81 S14       30.16F WCI  29
BLOOMINGTON    CLOUDY    38  33  82 S14       30.15F WCI  30
DECATUR        CLOUDY    35  29  78 S13       30.18F HAZE    WCI  26
PEORIA         CLOUDY    39  31  72 S17G25    30.11F WCI  30
6HR MIN TEMP:  36; 6HR MAX TEMP:  40;

LACON*         CLOUDY    37  31  78 S8        30.12F WCI  31
LINCOLN*       CLOUDY    38  32  79 S10       30.16F WCI  31
SPRINGFIELD    CLOUDY    39  31  72 S12       30.15F WCI  32
6HR MIN TEMP:  37; 6HR MAX TEMP:  39;

TAYLORVILLE    CLOUDY    34  30  86 SE9       30.16F WCI  26
$$

ILZ033-039-045-046-055>057-062-063-211900-
EAST-CENTRAL ILLINOIS

CITY           SKY/WX    TMP DP  RH WIND       PRES   REMARKS
CHAMPAIGN      PTSUNNY   38  30  73 S13       30.18F WCI  30
DANVILLE*      CLOUDY    34  29  82 S9        30.17F WCI  26
MATTOON        CLOUDY    37  29  72 VRB6      30.18F WCI  32
PARIS*         MOSUNNY   37  32  81 SE9       30.20F WCI  31
$$

ILZ079-100>102-211900-
SOUTHWEST ILLINOIS

CITY           SKY/WX    TMP DP  RH WIND       PRES   REMARKS
ALTON          CLOUDY    39  32  75 SE15      30.15F WCI  31
BELLEVILLE     CLOUDY    38  32  78 SE8       30.16F WCI  33
CAHOKIA*       CLOUDY    41  33  73 SE12      30.15F
SPARTA*        CLOUDY    41  31  68 E7        30.17F
$$

ILZ064>066-069>071-074>076-080>082-084>086-088>090-092>094-211900-
SOUTH-CENTRAL ILLINOIS

CITY           SKY/WX    TMP DP  RH WIND       PRES   REMARKS
CARBONDALE     CLOUDY    41  27  57 E5        30.18F
6HR MIN TEMP:  25; 6HR MAX TEMP:  41;

CAIRO*         MOSUNNY   45  33  64 CALM      30.18F
EFFINGHAM*     MOSUNNY   39  27  60 SE9       30.21F WCI  33
MARION         PTSUNNY   43  30  61 E6        30.19F
MT. VERNON     MOSUNNY   41  27  56 SE3       30.19F
CENTRALIA*     CLOUDY    41  27  57 S8        30.18F
SALEM*         CLOUDY    42  29  59 SE6       30.19F
METROPOLIS*    SUNNY     45  32  61 SE3       30.17F
$$

ILZ067-068-072-073-078-083-087-091-211900-
SOUTHEAST ILLINOIS

CITY           SKY/WX    TMP DP  RH WIND       PRES   REMARKS
LAWRENCEVILLE  SUNNY     38  29  70 VRB5      30.23F WCI  34
FLORA*         SUNNY     38  29  70 SE9       30.21F WCI  32
FAIRFIELD*     MOSUNNY   40  29  65 SE9       30.19F
HARRISBURG*    SUNNY     40  30  67 SE5       30.21F
ROBINSON*      SUNNY     37  29  75 S7        30.23F WCI  31
CARMI*         MOSUNNY   42  32  67 SE8       30.20F
$$

ABBREVIATIONS USED IN REMARKS
   TC - TEMPERATURE IN CELSIUS
  WCI - WIND CHILL INDEX
   HX - HEAT INDEX
  VSB - VISIBILITY
$$



USA.gov is the U.S. government's official web portal to all federal, state and local government web resources and services.